Location: B?jaj?g
(11.7167°N, 92.6667°E)
Time: 22:33:07
(UTC+00:00)

Cosmos 1733 Rocket - Pass Details

Date: 18 September 2020
Orbit: 602 x 629 km, 82.5° (Epoch: 30 October)

Event Time Altitude Azimuth Distance (km) Brightness Sun altitude
Rises 22:59:32 0° 358° (N) 2,852 6.5 -10.4°
Reaches altitude 10° 23:01:45 10° 359° (N) 1,946 5.7 -9.8°
Maximum altitude 23:06:03 79° 86° (E) 616 3.2 -8.8°
Drops below altitude 10° 23:10:20 10° 173° (S) 1,940 5.7 -7.7°
Sets 23:12:33 0° 174° (S) 2,842 6.5 -7.2°
